Home   Weather   Modena   Past weeks

Flag for Italy Past Weather in Modena, Italy — Yesterday and Last 2 Weeks

Now
70 °F

Sunny.


Feels Like: 70 °F
Forecast: 57 / 79 °F
Wind: 13 mph from Southeast

Location: Bologna / Borgo Panigale

Current Time: May 25, 2017 at 8:22:47 pm

Latest Report: May 25, 2017 at 7:50 pm


Visibility: 10 mi

Pressure: 30.01 "Hg

Humidity: 50%

Dew Point: 50 °F

Location of ModenaLocation

Past Weather in Modena — Graph

°F

Modena Temperature Yesterday

Maximum temperature yesterday: 84 °F (at 3:20 pm)
Minimum temperature yesterday: 64 °F (at 5:20 am)
Average temperature yesterday: 74 °F

High & Low Weather Summary for the Past Weeks

 TemperatureHumidityPressure
High84 °F (May 23, 3:50 pm)100% (May 11, 11:50 pm)30.36 "Hg (May 11, 11:50 pm)
Low54 °F (May 11, 1:50 am)32% (May 17, 2:20 pm)29.68 "Hg (May 11, 7:50 pm)
Average68 °F64%30.03 "Hg
* Reported May 10 7:20 pm — May 25 7:20 pm, Modena. Weather by CustomWeather, © 2017

Note: Actual official high and low records may vary slightly from our data, if they occured in-between our weather recording intervals... More about our weather records

Advertising

Modena Weather History for the Previous 24 Hours

Scroll right to see more
 ConditionsComfort  
Time TempWeatherWind HumidityBarometerVisibility
7:20 pm
Thu, May 25
72 °FSunny.14 mph47%30.01 "Hg10 mi
6:50 pm73 °FSunny.15 mph44%30.01 "Hg10 mi
6:20 pm73 °FSunny.15 mph47%30.01 "Hg10 mi
5:50 pm75 °FPassing clouds.14 mph47%30.01 "HgN/A
5:20 pm75 °FPassing clouds.12 mph50%30.01 "HgN/A
4:50 pm75 °FPassing clouds.12 mph50%30.04 "HgN/A
4:20 pm75 °FPassing clouds.9 mph54%30.04 "HgN/A
3:50 pm77 °FPassing clouds.12 mph51%30.04 "HgN/A
3:20 pm77 °FPassing clouds.10 mph51%30.04 "HgN/A
2:50 pm75 °FPassing clouds.12 mph54%30.04 "HgN/A
2:20 pm73 °FScattered clouds.12 mph50%30.04 "HgN/A
1:50 pm75 °FScattered clouds.12 mph50%30.07 "HgN/A
1:20 pm75 °FScattered clouds.13 mph57%30.07 "HgN/A
12:50 pm73 °FScattered clouds.13 mph57%30.07 "HgN/A
12:20 pm73 °FScattered clouds.13 mph61%30.07 "HgN/A
11:50 am73 °FScattered clouds.12 mph65%30.07 "HgN/A
11:20 am72 °FScattered clouds.13 mph65%30.07 "HgN/A
10:50 am73 °FScattered clouds.10 mph69%30.07 "HgN/A
10:20 am70 °FScattered clouds.12 mph69%30.07 "HgN/A
9:50 am70 °FScattered clouds.12 mph73%30.07 "HgN/A
9:20 am70 °FScattered clouds.12 mph73%30.07 "HgN/A
8:50 am68 °FPartly sunny.10 mph78%30.04 "HgN/A
8:20 am66 °FPartly sunny.10 mph83%30.04 "HgN/A
7:50 am66 °FPartly sunny.13 mph83%30.04 "HgN/A
7:20 am64 °FPartly sunny.14 mph88%30.01 "HgN/A
6:50 am64 °FScattered clouds.10 mph88%30.01 "HgN/A
6:20 am63 °FPassing clouds.8 mph94%30.01 "HgN/A
5:50 am64 °FPassing clouds.8 mph88%29.98 "HgN/A
5:20 am64 °FPassing clouds.7 mph88%29.98 "HgN/A
4:50 am64 °FPassing clouds.7 mph94%29.95 "HgN/A
4:20 am64 °FPassing clouds.5 mph88%29.95 "HgN/A
3:50 am64 °FClear.5 mph94%29.95 "Hg10 mi
3:20 am66 °FClear.5 mph88%29.95 "Hg10 mi
2:20 am66 °FPassing clouds.7 mph88%29.95 "HgN/A
1:50 am66 °FClear.6 mph83%29.95 "Hg10 mi
1:20 am68 °FClear.5 mph73%29.95 "Hg10 mi
12:50 am70 °FClear.2 mph57%29.92 "Hg10 mi
12:20 am72 °FClear.7 mph53%29.92 "Hg10 mi
11:50 pm
Wed, May 24
72 °FClear.9 mph53%29.92 "Hg10 mi
11:20 pm73 °FClear.9 mph50%29.92 "Hg10 mi
10:50 pm73 °FClear.8 mph53%29.92 "Hg10 mi
10:20 pm75 °FClear.7 mph50%29.95 "Hg10 mi
9:50 pm75 °FPassing clouds.6 mph54%29.95 "HgN/A
9:20 pm77 °FClear.9 mph51%29.95 "Hg10 mi
8:50 pm77 °FClear.6 mph57%29.92 "Hg10 mi
8:20 pm77 °FSunny.2 mph61%29.95 "Hg10 mi
Weather by CustomWeather, © 2017

See weather overviewHow to use our weather pages